Voltar ao catálogo

STARLINK-36979

AtivoComunicaçõesVLEO
NORAD 67996·PAYLOAD·🇺🇸 United States

Lançado Feb 27, 2026 de Vandenberg Space Force Base

Loading…

Próximas Passagens (próximas 24 horas)

TLE

AtualizadoSource: CelesTrak SupGP

Época: Sep 15, 2026, 02:38 UTC

1 67996C 26039L   26258.11020833 -.00023574  00000+0 -85368-3 0  2581
2 67996  43.0042  59.1228 0001778 274.6660  79.1241 15.27596650    14

Acompanhe STARLINK-36979 em tempo real com AllMySat

Download on the App Store